Starlink 1593

operational
NORAD ID: 46119 Int'l Des: 2020-057 Owner: SPXS Country: US Constellation: starlink
LEOCIRCULARSTARLINK_TYPE

Starlink 1593について

説明を読み込み中...

リアルタイム位置

3D地球を読み込み中...

次回通過

高度履歴

Altitude vs Time

uPlot chart will show altitude changes over time

軌道要素

1 46119U 20057C 25258.09485381 .00000557 00000-0 56255-4 0 9999
2 46119 53.0555 25.2426 0001093 82.8704 277.2409 15.06401821280851
Epoch: Sep 15, 2025 • Age: 19 hours

現在のステータス

高度 566.2 km
速度 7.58 km/s
衛星直下点 -52.43°S, 31.07°W
打ち上げ日 Aug 18, 2020
運用期間 5 years
タイプ internet

技術仕様

分類 Payload
質量 260.00 kg
乾燥質量 248.00 kg
総質量 260.00 kg
長さ 0.20 m
直径 2.80 m
スパン 9.00 m
形状 Box + pan
製造者 SPXS
バスタイプ Starlink
フェーズステータス In Orbit
所有者/国 SPXS/US

大規模コンステレーション

Loading constellations...